Weather History for Childress, TX

Change the Weather History Date:

Friday, July 19, 2013

  Actual Average Record
Temperature  
Mean Temperature 81 °F 84 °F  
Max Temperature 92 °F 96 °F 114 °F (1936)
Min Temperature 69 °F 71 °F 61 °F (1909)
Degree Days  
Heating Degree Days 0 0  
Month to date heating degree days 0 0  
Since 1 June heating degree days 0 2  
Since 1 July heating degree days 0 0  
Cooling Degree Days 16 19  
Month to date cooling degree days 307 346  
Year to date cooling degree days 1160 1079  
Since 1 June cooling degree days 809 767  
Growing Degree Days 30 (Base 50)    
Moisture  
Dew Point 65 °F    
Average Humidity 61    
Maximum Humidity 90    
Minimum Humidity 32    
Precipitation  
Precipitation 0.00 in 0.06 in 2.00 in (1906)
Month to date precipitation 2.00 1.25  
Year to date precipitation 10.12 13.77  
Snow  
Snow 0.00 in 0.00 in - ()
Month to date snowfall 0.0 0.0  
Since 1 June snowfall 0.0 0.0  
Since 1 July snowfall 0.0 0.0  
Snow Depth -    
Sea Level Pressure  
Sea Level Pressure 29.98 in    
Wind  
Wind Speed 10 mph (SW)    
Max Wind Speed 21 mph    
Max Gust Speed 29 mph    
Visibility 10 miles    
Events      
T = Trace of Precipitation, MM = Missing Value Source: NWS Daily Summary

Daily Weather History Graph

Daily Weather History Graph

Search for Another Location

Airport:

Trip Planner

Search our weather history database for the weather conditions in past years. The results will help you decide how hot, cold, wet, or windy it might be!

Date:

Astronomy

Jul. 19, 2013 Rise Set
Actual Time 6:42 AM CDT 8:51 PM CDT
Civil Twilight 6:14 AM CDT 9:20 PM CDT
Nautical Twilight 5:39 AM CDT 9:54 PM CDT
Astronomical Twilight 5:02 AM CDT 10:32 PM CDT
Moon 5:56 PM CDT (7/19) 3:24 AM CDT (7/19)
Length of Visible Light 15h 05m
Length of Day
14h 09m
Waxing Gibbous, 87% of the Moon is Illuminated
Jul 19
Waxing Gibbous
Jul 22
Full
Jul 29
Last Quarter
Aug 6
New
Aug 14
First Quarter

Hourly Weather History & Observations

Time (CDT) Temp. Heat Index Dew Point Humidity Pressure Visibility Wind Dir Wind Speed Gust Speed Precip Events Conditions
12:53 AM 73.0 °F - 66.9 °F 81% 30.05 in 10.0 mi SSW 6.9 mph - N/A   Clear
1:53 AM 73.0 °F - 66.9 °F 81% 30.03 in 10.0 mi SW 6.9 mph - N/A   Clear
2:53 AM 72.0 °F - 66.9 °F 84% 30.03 in 10.0 mi SW 8.1 mph - N/A   Clear
3:53 AM 71.1 °F - 66.9 °F 87% 30.01 in 10.0 mi SW 6.9 mph - N/A   Clear
4:53 AM 71.1 °F - 66.0 °F 84% 30.01 in 10.0 mi SW 6.9 mph - N/A   Clear
5:53 AM 71.1 °F - 66.0 °F 84% 30.01 in 10.0 mi WSW 5.8 mph - N/A   Clear
6:53 AM 69.1 °F - 66.0 °F 90% 30.03 in 10.0 mi Calm Calm - N/A   Clear
7:53 AM 72.0 °F - 66.9 °F 84% 30.02 in 10.0 mi SW 5.8 mph - N/A   Clear
8:53 AM 75.9 °F - 66.9 °F 74% 30.03 in 10.0 mi WSW 9.2 mph - N/A   Clear
9:53 AM 79.0 °F - 66.9 °F 66% 30.03 in 10.0 mi WSW 11.5 mph - N/A   Clear
10:53 AM 82.9 °F 85.0 °F 66.0 °F 56% 30.02 in 10.0 mi SW 12.7 mph - N/A   Clear
11:53 AM 84.9 °F 86.6 °F 64.9 °F 51% 30.01 in 10.0 mi SW 12.7 mph - N/A   Clear
12:53 PM 88.0 °F 89.3 °F 64.0 °F 45% 30.00 in 10.0 mi SW 15.0 mph - N/A   Partly Cloudy
1:53 PM 88.0 °F 88.7 °F 63.0 °F 43% 29.98 in 10.0 mi WSW 15.0 mph 25.3 mph N/A   Clear
2:53 PM 89.1 °F 89.0 °F 61.0 °F 39% 29.97 in 10.0 mi SW 15.0 mph - N/A   Partly Cloudy
3:53 PM 89.1 °F 89.0 °F 61.0 °F 39% 29.94 in 10.0 mi WSW 15.0 mph - N/A   Partly Cloudy
4:53 PM 91.0 °F 90.0 °F 57.9 °F 33% 29.92 in 10.0 mi SW 12.7 mph - N/A   Clear
5:53 PM 90.0 °F 90.0 °F 61.0 °F 38% 29.89 in 10.0 mi SSW 16.1 mph 23.0 mph N/A   Clear
6:53 PM 90.0 °F 89.7 °F 60.1 °F 37% 29.88 in 10.0 mi SSW 15.0 mph - N/A   Clear
7:53 PM 87.1 °F 87.8 °F 63.0 °F 44% 29.88 in 10.0 mi South 9.2 mph - N/A   Clear
8:53 PM 82.0 °F 83.8 °F 64.9 °F 56% 29.89 in 10.0 mi SSE 5.8 mph - N/A   Clear
9:53 PM 79.0 °F - 66.0 °F 64% 29.91 in 10.0 mi SSE 5.8 mph - N/A   Clear
10:53 PM 77.0 °F - 66.0 °F 69% 29.92 in 10.0 mi South 6.9 mph - N/A   Clear
11:53 PM 75.0 °F - 66.9 °F 76% 29.94 in 10.0 mi South 5.8 mph - N/A   Clear